Tracking 29892 objects as of 21-Nov-2024
HD Live streaming from Space Station
objects crossing your sky now

STARLINK-3641

Track STARLINK-3641 now!
10-day predictions
STARLINK-3641 is classified as:


NORAD ID: 51788
Int'l Code: 2022-017W
Perigee: 545.9 km
Apogee: 547.8 km
Inclination: 53.2 °
Period: 95.4 minutes
Semi major axis: 6917 km
RCS: Unknown
Launch date: February 25, 2022
Source: United States (US)
Launch site: AIR FORCE WESTERN TEST RANGE (AFWTR)
Your satellite tracking list
Your tracking list is empty




NASA's NSSDC Master Catalog

Two Line Element Set (TLE):
1 51788U 22017W   24325.36677198  .00000304  00000-0  37207-4 0  9994
2 51788  53.2173 318.4380 0001353 101.9943 258.1201 15.08848636152318
Source of the keplerian elements: AFSPC